Location: Gajan
(43.0218°N, 1.1244°E)
Time: 02:45:39
(UTC+00:00)

COSMOS 2428 - Pass Details

Date: 22 April 2021
Orbit: 844 x 859 km, 70.9° (Epoch: 15 May)

Event Time Altitude Azimuth Distance (km) Brightness Sun altitude
Rises 19:50:13 0° 330° (NNW) 3,442 7.0 -11.5°
Reaches altitude 10° 19:52:44 10° 326° (NW) 2,502 6.2 -11.9°
Maximum altitude 19:58:17 52° 251° (WSW) 1,059 3.5 -12.8°
Drops below altitude 10° 20:03:48 10° 177° (S) 2,484 4.8 -13.6°
Enters shadow 20:05:17 - 174° (S) 3,036 5.2 -13.9°
